Location: Alumbaugh
(37.5976°N, 83.9299°W)
Time: 19:35:30
(UTC+00:00)

Hubble Space Telescope - Visible Passes

Search period start: 08 December 2022 00:00
Search period end: 18 December 2022 00:00
Orbit: 530 x 534 km, 28.5° (Epoch: 08 December)

Date Brightness Start Highest point End Pass type
(mag) Time Alt. Az. Time Alt. Az. Time Alt. Az.
08 Dec 3.1 11:26:05 10° SW 11:29:00 19° S 11:31:55 10° SE visible
09 Dec 2.9 11:13:12 10° SW 11:16:15 20° S 11:19:18 10° SE visible
10 Dec 2.8 11:01:19 14° SW 11:03:30 21° S 11:06:38 10° SE visible
11 Dec 2.6 10:49:31 19° SSW 10:50:45 22° S 10:53:56 10° SE visible
12 Dec 2.5 10:37:40 22° S 10:37:59 22° S 10:41:12 10° SE visible
13 Dec 2.7 10:25:46 22° S 10:25:46 22° S 10:28:27 10° SE visible
13 Dec 3.1 12:03:09 10° SW 12:05:39 16° SSW 12:08:10 10° SSE visible
14 Dec 3.0 10:13:50 19° SSE 10:13:50 19° SSE 10:15:38 10° SE visible
14 Dec 3.1 11:50:42 10° SW 11:52:52 14° SSW 11:55:02 10° SSE visible
15 Dec 3.5 10:01:53 14° SE 10:01:53 14° SE 10:02:48 10° SE visible
15 Dec 3.2 11:38:23 10° SW 11:40:03 12° SSW 11:41:43 10° S visible
16 Dec 3.3 11:26:34 10° SSW 11:27:14 10° SSW 11:27:54 10° S visible
